Weather History for Shenandoah, IA

Change the Weather History Date:

Saturday, April 5, 2014

  Actual Average Record
Temperature  
Mean Temperature 42 °F -  
Max Temperature 60 °F 58 °F 85 °F (1954)
Min Temperature 23 °F 33 °F 18 °F (1968)
Degree Days  
Heating Degree Days 24    
Moisture  
Dew Point 27 °F    
Average Humidity 61    
Maximum Humidity 100    
Minimum Humidity 23    
Precipitation  
Precipitation 0.00 in - - ()
Sea Level Pressure  
Sea Level Pressure 30.11 in    
Wind  
Wind Speed 6 mph (SSE)    
Max Wind Speed 20 mph    
Max Gust Speed 24 mph    
Visibility 10 miles    
Events      
Averages and records for this station are not official NWS values.
T = Trace of Precipitation, MM = Missing Value Source: NWS Daily Summary

Daily Weather History Graph

Daily Weather History Graph

Search for Another Location

Airport:

Trip Planner

Search our weather history database for the weather conditions in past years. The results will help you decide how hot, cold, wet, or windy it might be!

Date:

Astronomy

Apr. 05, 2014 Rise Set
Actual Time 6:58 AM CDT 7:50 PM CDT
Civil Twilight 6:30 AM CDT 8:18 PM CDT
Nautical Twilight 5:57 AM CDT 8:51 PM CDT
Astronomical Twilight 5:23 AM CDT 9:25 PM CDT
Moon 11:05 AM CDT (4/5) 1:02 AM CDT (4/5)
Length of Visible Light 13h 47m
Length of Day
12h 52m
Waxing Crescent, 34% of the Moon is Illuminated
Apr 5
Waxing Crescent
Apr 7
First Quarter
Apr 15
Full
Apr 22
Last Quarter
Apr 29
New

Hourly Weather History & Observations

Time (CDT) Temp. Windchill Dew Point Humidity Pressure Visibility Wind Dir Wind Speed Gust Speed Precip Events Conditions
12:15 AM 26.6 °F - 24.8 °F 93% 30.18 in 10.0 mi Calm Calm - N/A   Clear
12:35 AM 28.4 °F - 26.6 °F 93% 30.18 in 10.0 mi Calm Calm - N/A   Clear
12:55 AM 26.6 °F - 24.8 °F 93% 30.17 in 5.0 mi Calm Calm - N/A   Clear
1:15 AM 26.6 °F - 26.6 °F 100% 30.18 in 4.0 mi Calm Calm - N/A   Clear
1:35 AM 26.6 °F - 26.6 °F 100% 30.18 in 7.0 mi Calm Calm - N/A   Clear
1:55 AM 24.8 °F - 24.8 °F 100% 30.18 in 4.0 mi Calm Calm - N/A   Clear
2:15 AM 24.8 °F - 24.8 °F 100% 30.18 in 4.0 mi Calm Calm - N/A   Clear
2:35 AM 24.8 °F - 24.8 °F 100% 30.18 in 7.0 mi Calm Calm - N/A   Clear
2:55 AM 24.8 °F - 24.8 °F 100% 30.17 in 8.0 mi Calm Calm - N/A   Clear
3:15 AM 24.8 °F - 23.0 °F 93% 30.17 in 10.0 mi Calm Calm - N/A   Clear
3:35 AM 24.8 °F - 23.0 °F 93% 30.16 in 9.0 mi Calm Calm - N/A   Clear
3:55 AM 23.0 °F - 23.0 °F 100% 30.16 in 10.0 mi Calm Calm - N/A   Clear
4:15 AM 23.0 °F - 23.0 °F 100% 30.16 in 10.0 mi Calm Calm - N/A   Clear
4:35 AM 23.0 °F - 21.2 °F 93% 30.15 in 10.0 mi Calm Calm - N/A   Clear
4:55 AM 26.6 °F 22.6 °F 24.8 °F 93% 30.15 in 10.0 mi SSE 3.5 mph - N/A   Clear
5:15 AM 26.6 °F - 24.8 °F 93% 30.15 in 10.0 mi Calm Calm - N/A   Clear
5:35 AM 26.6 °F 22.6 °F 24.8 °F 93% 30.16 in 10.0 mi SSE 3.5 mph - N/A   Clear
5:55 AM 23.0 °F 18.4 °F 19.4 °F 86% 30.16 in 10.0 mi South 3.5 mph - N/A   Clear
6:15 AM 23.0 °F - 21.2 °F 93% 30.17 in 10.0 mi Calm Calm - N/A   Clear
6:35 AM 24.8 °F - 23.0 °F 93% 30.17 in 10.0 mi Calm Calm - N/A   Clear
6:55 AM 24.8 °F - 23.0 °F 93% 30.18 in 10.0 mi Calm Calm - N/A   Clear
7:15 AM 24.8 °F - 24.8 °F 100% 30.18 in 9.0 mi Calm Calm - N/A   Clear
7:35 AM 23.0 °F - 23.0 °F 100% 30.19 in 9.0 mi Calm Calm - N/A   Clear
7:55 AM 24.8 °F - 24.8 °F 100% 30.19 in 10.0 mi Calm Calm - N/A   Clear
8:15 AM 28.4 °F - 26.6 °F 93% 30.20 in 10.0 mi Calm Calm - N/A   Clear
8:35 AM 33.8 °F 27.7 °F 28.4 °F 81% 30.20 in 10.0 mi South 6.9 mph - N/A   Clear
8:55 AM 35.6 °F 28.6 °F 30.2 °F 81% 30.20 in 10.0 mi South 9.2 mph - N/A   Clear
9:15 AM 35.6 °F 26.6 °F 30.2 °F 81% 30.19 in 10.0 mi SSE 13.8 mph - N/A   Clear
9:35 AM 39.2 °F 32.5 °F 30.2 °F 70% 30.19 in 10.0 mi South 10.4 mph - N/A   Clear
9:55 AM 39.2 °F 31.6 °F 30.2 °F 70% 30.19 in 10.0 mi South 12.7 mph 19.6 mph N/A   Clear
10:15 AM 42.8 °F 35.8 °F 30.2 °F 61% 30.18 in 10.0 mi SSE 13.8 mph - N/A   Clear
10:35 AM 42.8 °F 35.8 °F 32.0 °F 66% 30.17 in 10.0 mi SSE 13.8 mph - N/A   Clear
10:55 AM 44.6 °F 39.2 °F 32.0 °F 61% 30.17 in 10.0 mi SSE 10.4 mph 17.3 mph N/A   Clear
11:15 AM 46.4 °F 40.7 °F 32.0 °F 57% 30.16 in 10.0 mi South 12.7 mph - N/A   Clear
11:35 AM 48.2 °F - 32.0 °F 54% 30.15 in 10.0 mi SE 13.8 mph - N/A   Clear
11:55 AM 50.0 °F - 32.0 °F 50% 30.14 in 10.0 mi SSE 11.5 mph - N/A   Clear
12:15 PM 51.8 °F - 32.0 °F 47% 30.14 in 10.0 mi South 9.2 mph 16.1 mph N/A   Clear
12:35 PM 53.6 °F - 30.2 °F 41% 30.13 in 10.0 mi SE 12.7 mph - N/A   Clear
12:55 PM 53.6 °F - 30.2 °F 41% 30.12 in 10.0 mi SSE 12.7 mph - N/A   Clear
1:15 PM 55.4 °F - 28.4 °F 36% 30.11 in 10.0 mi South 11.5 mph 18.4 mph N/A   Clear
1:35 PM 55.4 °F - 28.4 °F 36% 30.11 in 10.0 mi South 11.5 mph 20.7 mph N/A   Clear
1:55 PM 57.2 °F - 26.6 °F 31% 30.10 in 10.0 mi SSE 15.0 mph 20.7 mph N/A   Clear
2:15 PM 59.0 °F - 26.6 °F 29% 30.09 in 10.0 mi South 11.5 mph 19.6 mph N/A   Clear
2:35 PM 59.0 °F - 24.8 °F 27% 30.08 in 10.0 mi SSE 16.1 mph - N/A   Partly Cloudy
2:55 PM 59.0 °F - 24.8 °F 27% 30.08 in 10.0 mi South 15.0 mph - N/A   Clear
3:15 PM 60.8 °F - 24.8 °F 25% 30.06 in 10.0 mi South 16.1 mph 24.2 mph N/A   Clear
3:35 PM 60.8 °F - 24.8 °F 25% 30.05 in 10.0 mi South 16.1 mph 23.0 mph N/A   Clear
3:55 PM 60.8 °F - 23.0 °F 23% 30.04 in 10.0 mi SSE 17.3 mph - N/A   Clear
4:15 PM 60.8 °F - 26.6 °F 27% 30.03 in 10.0 mi SSE 16.1 mph 23.0 mph N/A   Clear
4:35 PM 60.8 °F - 23.0 °F 23% 30.03 in 10.0 mi SSE 16.1 mph - N/A   Mostly Cloudy
4:55 PM 59.0 °F - 23.0 °F 25% 30.02 in 10.0 mi South 18.4 mph - N/A   Scattered Clouds
5:15 PM 60.8 °F - 24.8 °F 25% 30.01 in 10.0 mi South 15.0 mph 20.7 mph N/A   Clear
5:35 PM 59.0 °F - 23.0 °F 25% 30.01 in 10.0 mi South 13.8 mph 20.7 mph N/A   Clear
5:55 PM 59.0 °F - 26.6 °F 29% 30.01 in 10.0 mi SSE 13.8 mph 20.7 mph N/A   Clear
6:15 PM 59.0 °F - 26.6 °F 29% 30.00 in 10.0 mi SSE 18.4 mph - N/A   Partly Cloudy
6:35 PM 59.0 °F - 26.6 °F 29% 30.00 in 10.0 mi SE 17.3 mph 23.0 mph N/A   Partly Cloudy
6:55 PM 57.2 °F - 26.6 °F 31% 30.00 in 10.0 mi SSE 13.8 mph - N/A   Partly Cloudy
7:15 PM 55.4 °F - 28.4 °F 36% 30.01 in 10.0 mi SSE 10.4 mph - N/A   Mostly Cloudy
7:35 PM 55.4 °F - 28.4 °F 36% 30.02 in 10.0 mi SSE 8.1 mph - N/A   Overcast
7:55 PM 55.4 °F - 28.4 °F 36% 30.01 in 10.0 mi SSE 11.5 mph - N/A   Overcast
8:15 PM 53.6 °F - 28.4 °F 38% 30.02 in 10.0 mi SSE 10.4 mph - N/A   Overcast
8:35 PM 51.8 °F - 28.4 °F 41% 30.02 in 10.0 mi SSE 6.9 mph - N/A   Overcast
8:55 PM 51.8 °F - 30.2 °F 44% 30.02 in 10.0 mi SSE 8.1 mph - N/A   Overcast
9:15 PM 50.0 °F - 30.2 °F 47% 30.02 in 10.0 mi SE 9.2 mph - N/A   Overcast
9:35 PM 51.8 °F - 30.2 °F 44% 30.02 in 10.0 mi SE 11.5 mph - N/A   Overcast
9:55 PM 50.0 °F - 30.2 °F 47% 30.03 in 10.0 mi SSE 9.2 mph - N/A   Overcast
10:15 PM 50.0 °F - 30.2 °F 47% 30.02 in 10.0 mi SSE 12.7 mph - N/A   Overcast
10:35 PM 50.0 °F - 30.2 °F 47% 30.02 in 10.0 mi SSE 16.1 mph - N/A   Overcast
10:55 PM 50.0 °F - 32.0 °F 50% 30.02 in 10.0 mi SSE 16.1 mph 21.9 mph N/A   Overcast
11:15 PM 50.0 °F - 32.0 °F 50% 30.01 in 10.0 mi SSE 19.6 mph - N/A   Overcast
11:35 PM 50.0 °F - 32.0 °F 50% 30.01 in 10.0 mi SSE 17.3 mph - N/A   Overcast
11:55 PM 50.0 °F - 32.0 °F 50% 30.01 in 10.0 mi South 18.4 mph - N/A   Mostly Cloudy